[[{"header":{"parameterUnit":"m.s-1","parameterCategory":1,"la1":30.2991,"la2":30.254,"lo1":-89.0895,"lo2":-89.0444,"dy":0.0017,"dx":0.0017,"nx":28,"ny":28,"refTime":"2023-04-01T21:00:00:Z","depth":0,"parameterNumber":2,"parameterNumberName":"U-component_of_WINDS"},"data":[0,0,0,0,0,0,0,0,0,0,0,0,0,0,0,0,0,0,0,0,0,0,0,0,0,0,0,0,0,0,0,0,0,0,0,0,0,0,0,0,0,0,0,0,0,0,0,0,0,0,0,0,0,0,0,0,0,0,-5.1906,-5.1906,0,-5.1928,-5.1928,-5.1928,-5.1826,-5.1823,-5.182,-5.1817,-5.1839,-5.1842,-5.1845,0,0,0,0,0,0,0,0,0,0,0,0,0,-5.1775,-5.1778,-5.1906,-5.1906,-5.1906,-5.1928,-5.1928,-5.1928,-5.1826,-5.1822,-5.1819,-5.1815,-5.1837,-5.1841,-5.1845,0,0,0,0,0,0,0,0,0,0,0,0,0,-5.1818,-5.1779,-5.1906,-5.1858,-5.1854,-5.1928,-5.1928,-5.1928,-5.1827,-5.1822,-5.1818,-5.1814,-5.1836,-5.1841,-5.1846,-5.1966,0,0,-5.1861,-5.1864,0,0,0,0,0,0,0,0,-5.1816,-5.1823,-5.1865,-5.1861,-5.1857,-5.1869,-5.189,-5.1941,-5.1828,-5.1837,-5.1817,-5.1812,-5.1852,-5.1856,-5.187,-5.1967,-5.1968,-5.1862,-5.1865,-5.1867,-5.1868,0,0,0,0,0,0,0,-5.1813,-5.1822,-5.1914,-5.1865,-5.1861,-5.1835,-5.1837,-5.1899,-5.187,-5.1836,-5.1829,-5.1833,-5.1849,-5.1865,-5.1869,-5.1969,-5.1862,-5.1866,-5.1869,-5.1871,-5.2167,-5.2171,0,0,0,0,0,0,-5.1817,-5.182,-5.1914,-5.1915,-5.1825,-5.1841,-5.1843,-5.187,-5.1869,-5.1864,-5.1836,-5.1828,-5.1859,-5.1864,-5.187,-5.201,-5.1867,-5.1872,-5.1875,-5.2162,-5.2168,-5.2173,0,0,0,0,0,0,-5.1814,-5.1826,-5.1913,-5.1865,-5.1875,-5.1848,-5.188,-5.1873,-5.1888,-5.1869,-5.1863,-5.1858,-5.1855,-5.1863,-5.1943,-5.2009,-5.1874,-5.1879,-5.2156,-5.2164,-5.217,-5.2292,0,0,0,0,0,0,-5.1811,-5.1826,-5.1871,-5.1867,-5.1878,-5.1986,-5.1884,-5.1876,-5.1897,-5.1886,-5.1887,-5.1883,-5.1852,-5.1936,-5.1948,-5.2014,-5.1882,-5.215,-5.216,-5.2168,-5.2282,-5.2303,-5.2321,0,0,0,0,0,-5.1806,-5.1904,-5.1874,-5.1886,-5.1934,-5.199,-5.1996,-5.1958,-5.1903,-5.1948,-5.1936,-5.1883,-5.2001,-5.1945,-5.1958,-5.2026,-5.2146,-5.2157,-5.2167,-5.2274,-5.2299,-5.232,0,0,0,0,0,0,-5.1915,-5.1903,-5.1869,-5.1968,-5.1981,-5.1973,-5.2028,-5.1986,-5.2015,-5.2003,-5.1956,-5.1957,-5.2046,-5.2044,-5.1983,-5.2143,-5.2064,-5.2078,-5.214,-5.2164,-5.2183,-5.218,-5.1887,0,0,0,0,0,-5.1951,-5.1998,-5.1985,-5.2074,-5.2082,-5.2055,-5.2078,-5.2048,-5.2059,-5.2064,-5.2058,-5.2071,-5.211,-5.2137,-5.2173,-5.2283,-5.2281,-5.2336,-5.2355,-5.2371,-5.2383,-5.244,-5.2464,-5.2209,-5.2209,-5.2208,0,0,-5.2025,-5.2024,-5.2056,-5.2096,-5.2102,-5.2152,-5.206,-5.2116,-5.2152,-5.2073,-5.2148,-5.2144,-5.2156,-5.2251,-5.2293,-5.2253,-5.2453,-5.2385,-5.2397,-5.2401,-5.2454,-5.2478,-5.25,-5.2216,-5.2215,-5.2214,0,0,-5.2184,-5.2189,-5.2263,-5.2272,-5.2284,-5.2265,-5.2284,-5.2282,-5.2277,-5.2352,-5.2293,-5.2336,-5.2406,-5.2416,-5.2431,-5.2597,-5.2549,-5.261,-5.2709,-5.2766,-5.2786,-5.2803,-5.2861,-5.2883,-5.2623,-5.2623,-5.2623,0,-5.2274,-5.2347,-5.2307,-5.2367,-5.2386,-5.2318,-5.2393,-5.2404,-5.2426,-5.2441,-5.2396,-5.2482,-5.2485,-5.2582,-5.2623,-5.2637,-5.2656,-5.2608,-5.2786,-5.2804,-5.2819,-5.2874,-5.2896,-5.263,-5.2629,-5.2629,-5.2628,0,-5.2456,-5.2508,-5.2567,-5.2591,-5.2617,-5.2684,-5.2655,-5.2686,-5.2655,-5.2642,-5.272,-5.2721,-5.2756,-5.2777,-5.2747,-5.287,-5.2845,-5.2795,-5.2713,-5.2851,-5.2902,-5.2923,-5.264,-5.2638,-5.2636,-5.2634,0,0,-5.2681,-5.2685,-5.2707,-5.2717,-5.2726,-5.2765,-5.283,-5.2865,-5.2892,-5.2911,-5.2963,-5.3025,-5.2979,-5.2995,-5.2966,-5.3017,-5.3147,-5.2959,-5.2959,-5.2993,-5.3282,-5.3318,-5.3343,-5.3117,-5.3121,-5.3124,-5.328,0,-5.2836,-5.2947,-5.2914,-5.3026,-5.3072,-5.301,-5.3067,-5.3078,-5.3068,-5.3107,-5.3096,-5.3139,-5.3075,-5.3085,-5.3132,-5.3121,-5.3204,-5.311,-5.3164,-5.3167,-5.3161,-5.337,-5.3408,-5.3555,-5.33,-5.3303,-5.3306,0,-5.3031,-5.3058,-5.3174,-5.3176,-5.3194,-5.3246,-5.3275,-5.3313,-5.3326,-5.3315,-5.3335,-5.3296,-5.336,-5.3282,-5.3369,-5.3306,-5.3326,-5.3325,-5.333,-5.3331,-5.3243,-5.3375,-5.3601,-5.3622,-5.3337,-5.3334,-5.3332,0,-5.3181,-5.3247,-5.3325,-5.3336,-5.3341,-5.3378,-5.3382,-5.339,-5.3414,-5.344,-5.3454,-5.3488,-5.3506,-5.3533,-5.3504,-5.345,-5.3596,-5.3515,-5.3587,-5.3588,-5.3618,-5.3616,-5.3849,-5.3637,-5.3636,-5.3636,-5.3635,0,-5.3355,-5.3429,-5.3393,-5.344,-5.3521,-5.3483,-5.3564,-5.3561,-5.3569,-5.3615,-5.3564,-5.3608,-5.3569,-5.361,-5.3588,-5.3663,-5.3672,-5.3665,-5.3657,-5.3667,-5.3668,-5.3678,-5.3666,-5.3642,-5.364,-5.3639,-5.3638,0,-5.3535,-5.3514,-5.3595,-5.3594,-5.3595,-5.3655,-5.3653,-5.3697,-5.3685,-5.3744,-5.3755,-5.3736,-5.3781,-5.3756,-5.3803,-5.3789,-5.3885,-5.3866,-5.3881,-5.3875,-5.3948,-5.3941,-5.4193,-5.4223,-5.3995,-5.3997,-5.3999,0,-5.3646,-5.3701,-5.3707,-5.3734,-5.3741,-5.3786,-5.381,-5.3777,-5.3803,-5.3823,-5.3865,-5.3906,-5.3937,-5.4013,-5.4003,-5.4039,-5.4018,-5.4104,-5.4022,-5.4031,-5.4016,-5.4012,-5.4016,-5.4119,-5.4122,-5.4124,-5.4126,0,-5.3845,-5.3833,-5.3869,-5.3903,-5.3933,-5.3958,-5.3978,-5.4004,-5.3971,-5.4004,-5.405,-5.4074,-5.4123,-5.4164,-5.4196,-5.4199,-5.4157,-5.4153,-5.4171,-5.4179,-5.4185,-5.4181,-5.3923,-5.4146,-5.4144,-5.4142,-5.4141,-5.414,-5.3992,-5.4037,-5.4049,-5.4091,-5.4104,-5.4125,-5.4166,-5.416,-5.4198,-5.4235,-5.4214,-5.4268,-5.428,-5.4318,-5.4327,-5.4369,-5.4334,-5.4361,-5.4368,-5.4374,-5.4383,-5.4182,-5.4375,-5.4375,-5.4374,-5.4374,-5.4373,0,-5.4185,-5.419,-5.423,-5.4261,-5.4295,-5.4255,-5.4276,-5.4306,-5.4355,-5.4371,-5.4403,-5.4457,-5.4497,-5.4492,-5.4528,-5.4563,-5.4545,-5.4574,-5.4569,-5.457,-5.4413,-5.4392,-5.4588,-5.4588,-5.4588,-5.4588,-5.4588,-5.4588,-5.429,-5.4365,-5.4354,-5.4436,-5.444,-5.4493,-5.4508,-5.4527,-5.454,-5.4602,-5.4636,-5.4632,-5.4639,-5.4677,-5.4712,-5.471,-5.4724,-5.476,-5.475,-5.4603,-5.4581,-5.4561,-5.4541,-5.4765,-5.4765,-5.4903,-5.4904,-5.4905]},{"header":{"parameterUnit":"m.s-1","parameterCategory":1,"la1":30.2991,"la2":30.254,"lo1":-89.0895,"lo2":-89.0444,"dy":0.0017,"dx":0.0017,"nx":28,"ny":28,"refTime":"2023-04-01T21:00:00:Z","depth":0,"parameterNumber":3,"parameterNumberName":"V-component_of_WINDS"},"data":[0,0,0,0,0,0,0,0,0,0,0,0,0,0,0,0,0,0,0,0,0,0,0,0,0,0,0,0,0,0,0,0,0,0,0,0,0,0,0,0,0,0,0,0,0,0,0,0,0,0,0,0,0,0,0,0,0,0,-0.7691,-0.7691,0,-0.7724,-0.7724,-0.7725,-0.7726,-0.7726,-0.7725,-0.7725,-0.7759,-0.776,-0.7762,0,0,0,0,0,0,0,0,0,0,0,0,0,-0.7627,-0.7628,-0.7691,-0.7691,-0.7692,-0.7724,-0.7725,-0.7725,-0.7726,-0.7725,-0.7725,-0.7725,-0.7759,-0.776,-0.7762,0,0,0,0,0,0,0,0,0,0,0,0,0,-0.7657,-0.7628,-0.7691,-0.7696,-0.7697,-0.7724,-0.7725,-0.7725,-0.7726,-0.7725,-0.7725,-0.7724,-0.7758,-0.776,-0.7762,-0.7786,0,0,-0.7768,-0.7769,0,0,0,0,0,0,0,0,-0.7655,-0.7659,-0.7695,-0.7696,-0.7697,-0.772,-0.7715,-0.7746,-0.7726,-0.7715,-0.7725,-0.7724,-0.7747,-0.775,-0.7757,-0.7788,-0.7789,-0.7768,-0.7769,-0.777,-0.7771,0,0,0,0,0,0,0,-0.7653,-0.7658,-0.7704,-0.7695,-0.7696,-0.7696,-0.77,-0.772,-0.7734,-0.7716,-0.7716,-0.772,-0.7747,-0.7755,-0.7758,-0.779,-0.7768,-0.777,-0.7771,-0.7772,-0.784,-0.7841,0,0,0,0,0,0,-0.765,-0.7656,-0.7703,-0.7705,-0.7674,-0.7698,-0.7702,-0.7713,-0.7734,-0.7736,-0.772,-0.772,-0.7752,-0.7756,-0.7759,-0.7788,-0.777,-0.7772,-0.7773,-0.784,-0.784,-0.7841,0,0,0,0,0,0,-0.7649,-0.7654,-0.7702,-0.7681,-0.7687,-0.77,-0.7712,-0.7714,-0.7722,-0.7737,-0.7739,-0.7726,-0.7752,-0.7757,-0.7779,-0.7789,-0.7773,-0.7775,-0.7839,-0.784,-0.7841,-0.7846,0,0,0,0,0,0,-0.7647,-0.7654,-0.7663,-0.7681,-0.7688,-0.7721,-0.7713,-0.7715,-0.7726,-0.7725,-0.7743,-0.7746,-0.7752,-0.7776,-0.7781,-0.7792,-0.7776,-0.7838,-0.7839,-0.784,-0.7845,-0.7847,-0.7849,0,0,0,0,0,-0.7645,-0.7664,-0.7664,-0.767,-0.77,-0.7722,-0.7726,-0.7732,-0.7727,-0.7736,-0.7745,-0.7745,-0.7787,-0.7779,-0.7784,-0.7795,-0.7837,-0.7839,-0.784,-0.7844,-0.7847,-0.7849,0,0,0,0,0,0,-0.7648,-0.7667,-0.7667,-0.7692,-0.7705,-0.7722,-0.7734,-0.7735,-0.775,-0.7749,-0.7757,-0.7761,-0.7783,-0.7791,-0.7781,-0.7819,-0.7812,-0.7814,-0.7813,-0.7815,-0.7817,-0.7814,-0.7778,0,0,0,0,0,-0.7652,-0.7668,-0.7683,-0.7704,-0.7711,-0.7721,-0.7731,-0.7735,-0.7749,-0.7754,-0.7765,-0.7779,-0.7795,-0.7805,-0.7821,-0.7846,-0.7849,-0.7856,-0.7858,-0.7859,-0.7862,-0.7874,-0.7877,-0.7846,-0.7846,-0.7846,0,0,-0.766,-0.7672,-0.7682,-0.7705,-0.7716,-0.7732,-0.7726,-0.7744,-0.7756,-0.7757,-0.7779,-0.7787,-0.7803,-0.7826,-0.7837,-0.7834,-0.7871,-0.7861,-0.7862,-0.7864,-0.7876,-0.7879,-0.7881,-0.7847,-0.7847,-0.7847,0,0,-0.7683,-0.7694,-0.7712,-0.7722,-0.7738,-0.7745,-0.7749,-0.7765,-0.777,-0.7792,-0.7793,-0.7807,-0.7835,-0.7845,-0.7854,-0.7879,-0.7879,-0.7884,-0.7894,-0.7906,-0.7908,-0.791,-0.7918,-0.7921,-0.7886,-0.7886,-0.7886,0,-0.7691,-0.7716,-0.7721,-0.7739,-0.7749,-0.775,-0.7768,-0.7777,-0.7798,-0.7804,-0.78,-0.7834,-0.7845,-0.787,-0.7875,-0.7883,-0.7887,-0.7882,-0.7907,-0.791,-0.7912,-0.7919,-0.7923,-0.7886,-0.7886,-0.7886,-0.7886,0,-0.7724,-0.7741,-0.7754,-0.7772,-0.7784,-0.7801,-0.7809,-0.782,-0.7822,-0.7828,-0.785,-0.7862,-0.788,-0.7886,-0.7889,-0.7911,-0.7908,-0.7906,-0.7899,-0.7915,-0.7922,-0.7925,-0.7887,-0.7887,-0.7887,-0.7887,0,0,-0.7752,-0.7772,-0.7776,-0.7784,-0.7801,-0.7814,-0.7831,-0.7847,-0.7856,-0.7869,-0.7883,-0.7906,-0.7903,-0.7913,-0.7917,-0.7927,-0.7944,-0.7923,-0.7923,-0.7926,-0.7969,-0.797,-0.7974,-0.7944,-0.7945,-0.7945,-0.7967,0,-0.7776,-0.7806,-0.7811,-0.7837,-0.7852,-0.7853,-0.7867,-0.7879,-0.7885,-0.7898,-0.7905,-0.792,-0.7916,-0.7922,-0.7932,-0.794,-0.7953,-0.7939,-0.7957,-0.7958,-0.7953,-0.7978,-0.798,-0.8,-0.797,-0.7971,-0.7971,0,-0.7809,-0.7822,-0.7849,-0.7862,-0.7869,-0.7882,-0.7897,-0.791,-0.7922,-0.7926,-0.7936,-0.7938,-0.7955,-0.7946,-0.7969,-0.7959,-0.7967,-0.7972,-0.7972,-0.7975,-0.7965,-0.798,-0.8006,-0.8009,-0.7976,-0.7975,-0.7975,0,-0.7825,-0.785,-0.7869,-0.7876,-0.7892,-0.79,-0.7907,-0.7919,-0.7928,-0.7941,-0.7947,-0.7962,-0.797,-0.7981,-0.7986,-0.798,-0.8008,-0.8001,-0.8011,-0.8011,-0.8017,-0.8017,-0.8045,-0.8023,-0.8023,-0.8023,-0.8023,0,-0.7851,-0.7868,-0.7876,-0.7888,-0.7906,-0.7911,-0.7929,-0.7936,-0.7946,-0.7959,-0.796,-0.7972,-0.7978,-0.7991,-0.7995,-0.8013,-0.8017,-0.802,-0.8021,-0.802,-0.8019,-0.8025,-0.8023,-0.8023,-0.8023,-0.8023,-0.8023,0,-0.7873,-0.7879,-0.79,-0.7913,-0.7916,-0.7929,-0.794,-0.7951,-0.7956,-0.7972,-0.7976,-0.7985,-0.8,-0.8006,-0.8025,-0.8027,-0.8047,-0.8047,-0.8043,-0.8043,-0.8053,-0.8052,-0.8086,-0.809,-0.8065,-0.8065,-0.8066,0,-0.7889,-0.7902,-0.7915,-0.7924,-0.7931,-0.7944,-0.7953,-0.7958,-0.7967,-0.7981,-0.799,-0.8005,-0.8017,-0.804,-0.8048,-0.8062,-0.8062,-0.8073,-0.8064,-0.8062,-0.8062,-0.8061,-0.8061,-0.8075,-0.8075,-0.8075,-0.8075,0,-0.7917,-0.7919,-0.7932,-0.7945,-0.7956,-0.7967,-0.7977,-0.7984,-0.799,-0.8,-0.8015,-0.8024,-0.8042,-0.8057,-0.807,-0.8077,-0.8077,-0.8078,-0.8081,-0.808,-0.8077,-0.8078,-0.8047,-0.8077,-0.8077,-0.8077,-0.8077,-0.8077,-0.7936,-0.7947,-0.7957,-0.7971,-0.7979,-0.7989,-0.8,-0.8006,-0.8018,-0.8033,-0.8035,-0.805,-0.8061,-0.8079,-0.8087,-0.8098,-0.8096,-0.81,-0.8101,-0.8102,-0.8103,-0.8075,-0.8101,-0.8101,-0.8101,-0.8101,-0.8101,0,-0.7964,-0.797,-0.7983,-0.7997,-0.8007,-0.8006,-0.8017,-0.8026,-0.8039,-0.8049,-0.806,-0.8076,-0.809,-0.8098,-0.8111,-0.8119,-0.8119,-0.8122,-0.8122,-0.8123,-0.8105,-0.81,-0.8122,-0.8122,-0.8122,-0.8122,-0.8122,-0.8122,-0.7979,-0.7997,-0.8,-0.8021,-0.8027,-0.8042,-0.8048,-0.8057,-0.8064,-0.8082,-0.8093,-0.8098,-0.8107,-0.8121,-0.8132,-0.8134,-0.8139,-0.8142,-0.8144,-0.8127,-0.8125,-0.8123,-0.8119,-0.8143,-0.8143,-0.8161,-0.8162,-0.8162]}]]